Cape Byron Observation History
Time Wind Speed Temp Pressure Rel. Hum Rain
30/11:30am NNE 5-6 kts 25.7°c 1017.4 hPa 67% 0.0mm
30/11:00am NNE 4-5 kts 25.2°c 1017.5 hPa 68% 0.0mm
30/10:30am NNE 4-5 kts 24.5°c 1017.5 hPa 67% 0.0mm
30/10:00am NNE 3-5 kts 24.3°c 1017.3 hPa 73% 0.0mm
30/09:30am SSW 3-4 kts 22.5°c 1017.2 hPa 82% 0.0mm
30/09:00am W 4-6 kts 21.7°c 1017.2 hPa 87% 4.0mm
30/08:30am WSW 8-9 kts 20.9°c 1017.1 hPa 87% 4.0mm
30/08:00am WSW 8-10 kts 20.4°c 1016.8 hPa 88% 4.0mm
30/07:30am WSW 9-11 kts 20.1°c 1016.5 hPa 90% 4.0mm
30/07:00am WSW 10-12 kts 19.9°c 1016.2 hPa 92% 4.0mm
30/06:30am W 10-12 kts 19.7°c 1016.1 hPa 93% 4.0mm
30/06:00am WSW 8-10 kts 20.1°c 1016.1 hPa 91% 4.0mm
30/05:30am WSW 9-10 kts 19.9°c 1015.9 hPa 91% 4.0mm
30/05:00am WSW 10-12 kts 19.8°c 1016.1 hPa 92% 4.0mm
30/04:30am WSW 12-15 kts 19.7°c 1016.3 hPa 93% 4.0mm
30/04:00am WSW 12-15 kts 19.7°c 1016.4 hPa 94% 4.0mm
30/03:30am WSW 12-14 kts 19.8°c 1016.6 hPa 95% 4.0mm
30/03:00am WSW 13-16 kts 19.6°c 1017.4 hPa 97% 4.0mm
30/02:30am WSW 12-15 kts 19.9°c 1017.5 hPa 94% 4.0mm
30/02:00am WSW 12-14 kts 20.0°c 1017.5 hPa 93% 4.0mm
30/01:30am WSW 9-12 kts 20.6°c 1017.8 hPa 90% 4.0mm
30/01:00am WSW 7-8 kts 20.9°c 1017.9 hPa 87% 4.0mm
30/12:30am WSW 7-10 kts 21.0°c 1018.1 hPa 87% 4.0mm
30/12:00am WSW 5-7 kts 21.2°c 1018.2 hPa 85% 4.0mm
Time Wind Speed Temp Pressure Rel. Hum Rain
29/11:30pm SW 5-6 kts 21.5°c 1018.5 hPa 83% 4.0mm
29/11:00pm SE 5-7 kts 22.0°c 1018.7 hPa 81% 4.0mm
29/10:30pm SW 4-6 kts 21.9°c 1019.1 hPa 81% 4.0mm
29/10:00pm ESE 7-10 kts 22.7°c 1019.2 hPa 77% 4.0mm
29/09:30pm E 9-11 kts 22.3°c 1018.9 hPa 81% 4.0mm
29/09:00pm E 5-8 kts 22.3°c 1018.8 hPa 82% 4.0mm
29/08:30pm E 8-11 kts 22.1°c 1018.7 hPa 87% 4.0mm
29/08:00pm E 7-9 kts 21.7°c 1018.6 hPa 81% 4.0mm
29/07:30pm E 12-15 kts 21.9°c 1018.2 hPa 85% 4.0mm
29/07:00pm E 7-12 kts 22.6°c 1018.1 hPa 84% 4.0mm
29/06:30pm ESE 10-13 kts 22.9°c 1017.7 hPa 82% 4.0mm
29/06:00pm E 12-15 kts 23.0°c 1017.6 hPa 78% 4.0mm
29/05:30pm ESE 11-13 kts 23.2°c 1017.3 hPa 75% 4.0mm
29/05:00pm SE 9-11 kts 23.5°c 1017.2 hPa 77% 4.0mm
29/04:30pm SSE 9-12 kts 23.4°c 1017.3 hPa 78% 4.0mm
29/04:00pm SE 11-15 kts 23.3°c 1017.4 hPa 81% 4.0mm
29/03:30pm SSE 11-14 kts 23.6°c 1017.5 hPa 81% 4.0mm
29/03:00pm S 12-15 kts 23.3°c 1017.7 hPa 80% 4.0mm
29/02:30pm S 13-17 kts 23.4°c 1017.9 hPa 78% 4.0mm
29/02:00pm SSE 9-13 kts 23.8°c 1018.1 hPa 77% 4.0mm
29/01:30pm SSW 6-8 kts 23.3°c 1018.4 hPa 82% 4.0mm
29/01:00pm S 8-11 kts 23.5°c 1018.9 hPa 81% 4.0mm
29/12:30pm SE 6-8 kts 24.4°c 1019.2 hPa 79% 4.0mm
29/12:00pm SW 3-4 kts 23.0°c 1019.4 hPa 84% 4.0mm
29/11:30am SSW 7-9 kts 22.2°c 1019.5 hPa 97% 4.0mm
29/11:00am SW 6-8 kts 21.0°c 1019.9 hPa 100% 4.0mm
29/10:30am SW 8-10 kts 20.3°c 1020.1 hPa 100% 4.0mm
29/10:00am SW 8-11 kts 19.3°c 1020.3 hPa 100% 4.0mm
29/09:30am WSW 5-7 kts 19.0°c 1020.3 hPa 100% 3.8mm
29/09:00am SW 6-8 kts 19.2°c 1020.2 hPa 100% 0.4mm
29/08:30am SW 8-11 kts 18.9°c 1019.6 hPa 100% 0.0mm
29/08:00am ESE 8-12 kts 19.7°c 1019.5 hPa 100% 0.0mm
29/07:30am SW 11-14 kts 18.7°c 1019.1 hPa 100% 0.0mm
29/07:00am SW 11-14 kts 18.2°c 1018.9 hPa 100% 0.0mm
29/06:30am SW 12-14 kts 18.5°c 1018.4 hPa 100% 0.0mm
29/06:00am SSW 9-13 kts 18.8°c 1018.2 hPa 100% 0.0mm
29/05:30am WSW 8-10 kts 19.7°c 1017.9 hPa 97% 0.0mm
29/05:00am WSW 8-11 kts 19.9°c 1018.0 hPa 97% 0.0mm
29/04:30am W 9-11 kts 19.7°c 1018.1 hPa 98% 0.0mm
29/04:00am W 6-7 kts 20.3°c 1018.1 hPa 95% 0.0mm
29/03:30am WSW 5-6 kts 20.4°c 1018.3 hPa 95% 0.0mm
29/03:00am WSW 7-8 kts 20.0°c 1018.5 hPa 98% 0.0mm
29/02:30am SW 6-7 kts 20.0°c 1018.7 hPa 97% 0.0mm
29/02:00am NNW 4-6 kts 20.9°c 1019.0 hPa 90% 0.0mm
29/01:30am NNE 5-8 kts 21.5°c 1019.2 hPa 86% 0.0mm
29/01:00am NE 8-11 kts 21.7°c 1019.4 hPa 89% 0.0mm
29/12:30am NE 9-11 kts 21.7°c 1019.4 hPa 88% 0.0mm
29/12:00am ENE 10-14 kts 21.2°c 1019.4 hPa 91% 0.0mm
Time Wind Speed Temp Pressure Rel. Hum Rain
28/11:30pm E 6-10 kts 21.1°c 1019.8 hPa 91% 0.0mm
28/11:00pm ENE 10-14 kts 21.1°c 1020.1 hPa 90% 0.0mm
28/10:30pm ENE 9-14 kts 21.3°c 1020.2 hPa 88% 0.0mm
28/10:00pm ENE 9-14 kts 21.1°c 1020.1 hPa 89% 0.0mm
28/09:30pm E 9-14 kts 21.1°c 1019.7 hPa 91% 0.0mm
28/09:00pm E 8-12 kts 21.2°c 1019.8 hPa 91% 0.0mm
28/08:30pm ENE 10-14 kts 21.6°c 1019.7 hPa 89% 0.0mm
28/08:00pm ENE 10-14 kts 21.3°c 1019.4 hPa 86% 0.0mm
28/07:30pm E 8-13 kts 21.5°c 1019.3 hPa 91% 0.0mm
28/07:00pm ENE 9-13 kts 21.4°c 1019.3 hPa 91% 0.0mm
28/06:30pm ENE 8-14 kts 21.8°c 1018.9 hPa 87% 0.0mm
28/06:00pm ENE 12-17 kts 22.1°c 1018.7 hPa 88% 0.0mm
28/05:30pm SE 10-13 kts 22.9°c 1018.6 hPa 84% 0.0mm
28/05:00pm ESE 9-11 kts 22.8°c 1018.4 hPa 85% 0.0mm
28/04:30pm S 11-15 kts 21.9°c 1018.5 hPa 91% 0.0mm
28/04:00pm SSE 9-15 kts 22.1°c 1018.6 hPa 82% 0.0mm
28/03:30pm SSE 9-13 kts 21.9°c 1018.5 hPa 88% 0.0mm
28/03:00pm SSE 11-15 kts 21.6°c 1018.8 hPa 85% 0.0mm
28/02:30pm S 14-19 kts 23.7°c 1018.8 hPa 81% 0.0mm
28/02:00pm SSW 12-16 kts 23.7°c 1019.3 hPa 84% 0.0mm
28/01:30pm SSW 18-23 kts 23.3°c 1019.3 hPa 83% 0.0mm
28/01:00pm SSW 15-20 kts 23.5°c 1020.0 hPa 81% 0.0mm
28/12:30pm SW 17-22 kts 22.9°c 1020.0 hPa 77% 0.0mm
28/12:00pm SSW 15-19 kts 22.3°c 1020.7 hPa 78% 0.0mm
28/11:30am SSW 15-20 kts 21.7°c 1020.8 hPa 79% 0.0mm
28/11:00am SW 15-21 kts 21.4°c 1021.0 hPa 77% 0.0mm
28/10:30am SW 16-24 kts 20.7°c 1021.0 hPa 76% 0.0mm
28/10:00am SW 15-23 kts 19.8°c 1020.9 hPa 77% 0.0mm
28/09:30am SW 17-21 kts 18.8°c 1020.7 hPa 78% 0.0mm
28/09:00am SW 17-22 kts 18.1°c 1020.5 hPa 81% 24.2mm
28/08:30am SW 18-24 kts 17.5°c 1020.2 hPa 83% 24.2mm
28/08:00am SW 19-24 kts 17.1°c 1019.9 hPa 84% 24.2mm
28/07:30am SW 20-25 kts 17.1°c 1019.7 hPa 85% 24.2mm
28/07:00am SW 20-26 kts 16.8°c 1019.6 hPa 87% 24.2mm
28/06:30am SW 21-25 kts 16.7°c 1019.4 hPa 88% 24.2mm
28/06:00am SW 20-24 kts 16.9°c 1019.4 hPa 90% 24.2mm
28/05:30am SW 18-24 kts 17.1°c 1019.5 hPa 89% 24.2mm
28/05:00am WSW 18-23 kts 16.9°c 1019.4 hPa 93% 24.2mm
28/04:30am SW 20-26 kts 16.6°c 1019.2 hPa 97% 24.2mm
28/04:00am SW 19-24 kts 16.8°c 1019.3 hPa 100% 24.2mm
28/03:30am WSW 18-22 kts 16.8°c 1019.6 hPa 100% 24.2mm
28/03:00am WSW 15-22 kts 17.0°c 1020.1 hPa 100% 24.2mm
28/02:30am WSW 13-18 kts 17.2°c 1020.7 hPa 100% 24.2mm
28/02:00am WSW 13-16 kts 17.5°c 1020.9 hPa 100% 24.2mm
28/01:30am WSW 16-22 kts 17.5°c 1020.8 hPa 100% 24.0mm
28/01:00am SW 16-20 kts 17.9°c 1021.1 hPa 100% 24.0mm
28/12:30am WSW 15-19 kts 18.1°c 1021.3 hPa 100% 23.0mm
28/12:00am SW 14-18 kts 18.4°c 1021.5 hPa 100% 17.6mm